TimeGMT,TemperatureF,Dew PointF,Humidity,Sea Level PressureIn,VisibilityMPH,Wind Direction,Wind SpeedMPH,Gust SpeedMPH,PrecipitationIn,Events,Conditions,WindDirDegrees,DateUTC
12:00 AM,39,37,92,29.40,,SSW,11.2,,,,,210,2012-11-10 00:00:00
6:00 AM,40,40,100,29.33,16,WSW,8.9,,,Rain,Light Rain,250,2012-11-10 06:00:00
7:00 AM,41.0,39.2,93,29.30,6.2,West,6.9,-,N/A,,Mostly Cloudy,260,2012-11-10 07:00:00
7:30 AM,41.0,39.2,93,29.30,6.2,West,16.1,-,N/A,Rain,Light Rain,280,2012-11-10 07:30:00
8:00 AM,41.0,39.2,93,29.30,6.2,West,11.5,-,N/A,,Mostly Cloudy,270,2012-11-10 08:00:00
8:30 AM,41.0,39.2,93,29.33,6.2,West,10.4,-,N/A,,Scattered Clouds,260,2012-11-10 08:30:00
9:00 AM,39.2,37.4,93,29.33,4.3,WNW,15.0,-,N/A,Rain,Light Rain Showers,290,2012-11-10 09:00:00
9:30 AM,39.2,37.4,93,29.33,6.2,WNW,9.2,-,N/A,Rain,Light Rain Showers,290,2012-11-10 09:30:00
10:00 AM,39.2,37.4,93,29.33,6.2,West,6.9,-,N/A,,Scattered Clouds,260,2012-11-10 10:00:00
10:30 AM,41.0,39.2,93,29.36,6.2,West,8.1,-,N/A,,Scattered Clouds,270,2012-11-10 10:30:00
11:00 AM,42.8,39.2,87,29.36,6.2,WSW,5.8,-,N/A,,Partly Cloudy,250,2012-11-10 11:00:00
11:30 AM,42.8,39.2,87,29.36,6.2,WSW,6.9,-,N/A,Rain,Light Rain Showers,240,2012-11-10 11:30:00
12:00 PM,43,38,78,29.38,6,WSW,8.9,,,Rain,Light Rain Showers,250,2012-11-10 12:00:00
12:00 PM,42.8,39.2,87,29.36,5.6,WSW,9.2,-,N/A,Rain,Light Rain Showers,250,2012-11-10 12:00:00
12:30 PM,41.0,37.4,87,29.36,6.2,West,9.2,-,N/A,,Partly Cloudy,260,2012-11-10 12:30:00
1:00 PM,42.8,37.4,81,29.36,6.2,West,10.4,-,N/A,,Partly Cloudy,260,2012-11-10 13:00:00
1:30 PM,41.0,37.4,87,29.36,6.2,West,6.9,-,N/A,,Scattered Clouds,260,2012-11-10 13:30:00
2:00 PM,42.8,37.4,81,29.36,6.2,West,10.4,-,N/A,,Scattered Clouds,260,2012-11-10 14:00:00
2:30 PM,42.8,39.2,87,29.36,6.2,West,8.1,-,N/A,Rain,Light Rain Showers,260,2012-11-10 14:30:00
3:00 PM,41.0,37.4,87,29.36,6.2,West,9.2,-,N/A,,Partly Cloudy,270,2012-11-10 15:00:00
3:30 PM,41.0,39.2,93,29.36,6.2,West,6.9,-,N/A,,Partly Cloudy,260,2012-11-10 15:30:00
4:00 PM,41.0,39.2,93,29.39,6.2,West,10.4,-,N/A,,Scattered Clouds,270,2012-11-10 16:00:00
4:30 PM,41.0,39.2,93,29.39,6.2,West,6.9,-,N/A,,Partly Cloudy,270,2012-11-10 16:30:00
5:00 PM,39.2,37.4,93,29.39,6.2,West,6.9,-,N/A,,Partly Cloudy,260,2012-11-10 17:00:00
6:00 PM,39,37,90,29.46,19,West,8.9,,,,Partly Cloudy,270,2012-11-10 18:00:00